Date String (YYYY-MM-DD hh:mm:ss) UTC,Instrument flags,Ambient pressure (hPa),Sample flow (lpm),Bypass flow (lpm),Sample temperature (°C),Ambient temperature (°C),ASC tube jacket temperature (°C),LED temperature (°C),Box temperature (°C),Sample RH (%),Span deviation,Mass concentration (μg/m³),Mass concentration (μg/m³),Mass concentration (μg/m³)
DateTimeUTC,F1_M11,P_M11,Q1_M11,Q2_M11,T1_M11,T2_M11,T3_M11,T4_M11,T5_M11,U1_M11,ZSPAN_M11,X0_M11,X2_M11,X1_M11
2021-08-25 21:00:00,,0831.5,5.01,0.00,29.6,26.3,00.0,38.6,30.8,34.3,0001.8,0028.56,0015.41,0013.68
2021-08-25 21:01:00,,0831.4,5.01,0.00,29.4,26.0,00.0,38.6,30.6,34.3,0001.5,0028.47,0015.33,0013.62
2021-08-25 21:02:00,,0831.4,5.00,0.00,29.4,26.2,00.0,38.5,30.7,34.4,0001.5,0028.06,0015.19,0013.57
2021-08-25 21:03:00,,0831.3,5.00,0.00,29.4,26.7,00.0,38.5,30.8,34.9,0001.5,0029.27,0015.18,0013.54
2021-08-25 21:04:00,,0831.3,5.01,0.00,29.4,27.2,00.0,38.5,31.0,34.6,0001.3,0029.33,0015.14,0013.50
2021-08-25 21:05:00,,0831.3,5.00,0.00,29.5,27.6,00.0,38.5,31.1,34.9,0001.2,0029.01,0015.06,0013.44
2021-08-25 21:06:00,,0831.2,4.99,0.00,29.6,27.9,00.0,38.5,31.3,35.1,0001.3,0029.98,0015.07,0013.44
2021-08-25 21:07:00,,0831.3,5.00,0.00,29.9,28.2,00.0,38.5,31.5,34.0,0001.5,0030.13,0015.14,0013.45
2021-08-25 21:08:00,,0831.2,4.99,0.00,30.1,28.5,00.0,38.6,31.6,33.6,0001.6,0030.65,0015.19,0013.48
2021-08-25 21:09:00,,0831.2,5.01,0.00,30.1,27.9,00.0,38.6,31.4,33.6,0001.8,0031.44,0015.15,0013.46
2021-08-25 21:10:00,,0831.2,4.99,0.00,30.1,26.4,00.0,38.6,31.0,33.7,0001.8,0032.69,0015.20,0013.48
2021-08-25 21:11:00,,0831.2,5.01,0.00,29.9,25.9,00.0,38.6,30.8,34.3,0001.8,0032.47,0015.16,0013.48
2021-08-25 21:12:00,,0831.2,4.99,0.00,29.9,26.1,00.0,38.6,30.8,34.1,0001.9,0032.36,0015.19,0013.46
2021-08-25 21:13:00,,0831.2,5.00,0.00,29.8,26.6,00.0,38.6,30.9,34.2,0001.9,0032.13,0015.27,0013.45
2021-08-25 21:14:00,,0831.2,4.99,0.00,29.8,27.1,00.0,38.6,31.0,34.2,0002.1,0031.30,0015.30,0013.45
2021-08-25 21:15:00,,0831.2,5.01,0.00,29.8,27.5,00.0,38.6,31.2,34.1,0002.2,0031.44,0015.30,0013.44
2021-08-25 21:16:00,,0831.2,4.98,0.00,29.9,27.9,00.0,38.7,31.3,34.3,0002.3,0031.21,0015.29,0013.43
2021-08-25 21:17:00,,0831.2,5.01,0.00,29.9,28.2,00.0,38.7,31.4,34.3,0002.0,0030.70,0015.22,0013.38
2021-08-25 21:18:00,,0831.2,4.99,0.00,30.0,28.4,00.0,38.7,31.5,34.2,0001.8,0032.08,0015.11,0013.34
2021-08-25 21:19:00,,0831.1,5.01,0.00,30.0,28.1,00.0,38.7,31.4,34.1,0001.7,0032.88,0015.07,0013.32
2021-08-25 21:20:00,,0831.2,4.99,0.00,29.9,26.6,00.0,38.7,30.9,34.5,0001.6,0032.33,0015.09,0013.33
2021-08-25 21:21:00,,0831.1,5.02,0.00,29.8,26.0,00.0,38.7,30.8,35.0,0001.4,0031.46,0015.12,0013.31
2021-08-25 21:22:00,,0831.1,4.99,0.00,29.9,26.1,00.0,38.7,30.9,34.7,0001.4,0031.20,0015.14,0013.29
2021-08-25 21:23:00,,0831.1,4.99,0.00,29.9,26.6,00.0,38.7,31.0,34.5,0001.5,0031.00,0015.17,0013.25
2021-08-25 21:24:00,,0831.0,5.01,0.00,30.0,27.0,00.0,38.6,31.1,34.2,0001.6,0030.57,0015.09,0013.19
2021-08-25 21:25:00,,0831.0,5.00,0.00,30.0,27.5,00.0,38.6,31.2,34.3,0001.7,0030.54,0015.02,0013.14
2021-08-25 21:26:00,,0831.0,5.00,0.00,30.0,27.9,00.0,38.7,31.3,34.4,0001.8,0031.03,0015.01,0013.08
2021-08-25 21:27:00,,0831.0,5.01,0.00,30.1,28.2,00.0,38.7,31.4,34.7,0001.8,0031.03,0014.99,0013.04
2021-08-25 21:28:00,,0831.1,4.99,0.00,30.1,28.4,00.0,38.8,31.5,34.0,0002.0,0031.21,0015.03,0012.99
2021-08-25 21:29:00,,0831.1,5.01,0.00,30.2,28.3,00.0,38.8,31.5,33.7,0002.3,0031.08,0015.12,0012.95
2021-08-25 21:30:00,,0831.1,5.00,0.00,30.1,26.8,00.0,38.8,31.1,32.9,0002.4,0030.44,0015.10,0012.88
2021-08-25 21:31:00,,0831.1,5.01,0.00,29.9,26.0,00.0,38.8,30.8,33.1,0002.1,0030.44,0015.05,0012.79
2021-08-25 21:32:00,,0831.1,5.00,0.00,29.8,26.1,00.0,38.8,30.8,33.3,0002.1,0029.78,0014.96,0012.72
2021-08-25 21:33:00,,0831.2,5.01,0.00,29.8,26.5,00.0,38.7,30.9,33.1,0002.2,0030.02,0014.91,0012.67
2021-08-25 21:34:00,,0831.1,4.99,0.00,29.7,27.0,00.0,38.7,31.0,33.4,0002.1,0030.29,0014.81,0012.62
2021-08-25 21:35:00,,0831.2,5.01,0.00,29.8,27.4,00.0,38.7,31.1,33.5,0002.0,0030.68,0014.77,0012.62
2021-08-25 21:36:00,,0831.2,4.99,0.00,29.8,27.8,00.0,38.7,31.3,33.4,0001.9,0030.37,0014.74,0012.61
2021-08-25 21:37:00,,0831.2,4.98,0.00,29.8,28.1,00.0,38.7,31.4,33.5,0001.9,0030.81,0014.74,0012.59
2021-08-25 21:38:00,,0831.2,4.99,0.00,29.9,28.4,00.0,38.7,31.4,34.0,0001.9,0031.46,0014.78,0012.56
2021-08-25 21:39:00,,0831.1,5.01,0.00,29.9,28.6,00.0,38.8,31.5,34.2,0001.8,0032.65,0014.70,0012.53
2021-08-25 21:40:00,,0831.1,5.00,0.00,29.9,27.9,00.0,38.8,31.3,33.8,0001.6,0031.83,0014.62,0012.52
2021-08-25 21:41:00,,0831.1,5.00,0.00,29.8,26.4,00.0,38.7,30.9,34.4,0001.5,0031.00,0014.60,0012.50
2021-08-25 21:42:00,,0831.0,5.01,0.00,29.7,26.0,00.0,38.7,30.7,34.3,0001.6,0030.24,0014.56,0012.50
2021-08-25 21:43:00,,0831.0,5.01,0.00,29.6,26.2,00.0,38.7,30.8,34.4,0001.7,0030.18,0014.52,0012.51
2021-08-25 21:44:00,,0831.0,5.00,0.00,29.5,26.7,00.0,38.6,30.9,34.3,0001.5,0031.17,0014.56,0012.52
2021-08-25 21:45:00,,0831.0,4.98,0.00,29.5,27.1,00.0,38.6,31.0,34.6,0001.5,0031.75,0014.55,0012.54
2021-08-25 21:46:00,,0831.0,5.01,0.00,29.6,27.5,00.0,38.6,31.2,34.6,0001.5,0032.49,0014.56,0012.53
2021-08-25 21:47:00,,0831.0,5.00,0.00,29.7,27.9,00.0,38.6,31.3,34.2,0001.6,0032.46,0014.60,0012.53
2021-08-25 21:48:00,,0831.0,4.98,0.00,29.7,28.2,00.0,38.6,31.4,33.9,0001.5,0031.26,0014.57,0012.54
2021-08-25 21:49:00,,0830.9,5.01,0.00,29.7,27.7,00.0,38.6,31.2,33.9,0001.5,0030.58,0014.54,0012.55
2021-08-25 21:50:00,,0830.9,5.00,0.00,29.6,26.3,00.0,38.6,30.8,34.3,0001.6,0030.59,0014.57,0012.54
2021-08-25 21:51:00,,0830.9,4.99,0.00,29.5,25.8,00.0,38.6,30.6,34.8,0001.6,0031.34,0014.52,0012.52
2021-08-25 21:52:00,,0830.9,5.01,0.00,29.5,26.1,00.0,38.5,30.7,34.8,0001.5,0033.05,0014.56,0012.52
2021-08-25 21:53:00,,0830.9,5.00,0.00,29.5,26.6,00.0,38.5,30.9,34.4,0001.7,0033.42,0014.54,0012.46
2021-08-25 21:54:00,,0830.9,5.00,0.00,29.7,27.0,00.0,38.5,31.1,33.8,0001.8,0032.95,0014.46,0012.40
2021-08-25 21:55:00,,0830.9,5.00,0.00,29.7,27.5,00.0,38.5,31.2,34.0,0001.7,0033.28,0014.40,0012.33
2021-08-25 21:56:00,,0830.9,5.01,0.00,29.8,27.9,00.0,38.5,31.3,34.0,0001.9,0034.01,0014.32,0012.27
2021-08-25 21:57:00,,0830.9,4.99,0.00,29.9,28.2,00.0,38.6,31.4,34.3,0002.0,0032.73,0014.24,0012.22
2021-08-25 21:58:00,,0830.9,5.00,0.00,29.9,28.3,00.0,38.6,31.4,34.4,0001.8,0032.81,0014.18,0012.15
2021-08-25 21:59:00,,0830.8,5.01,0.00,29.9,27.2,00.0,38.6,31.1,33.9,0001.6,0033.34,0014.12,0012.12
